KCVG Airport Diagram

We have created a template for each of the higher traffic airports in the vZID airspace. They include KCMH, KCRW, KCVG, KDAY, KIND, KLEX and KSDF. You wil find usefull information including the airport diagram, weather, and specific airport procedures.

KCVG Weather

[Source: ADDS]
METAR
KCVG 300652Z 22006KT 10SM FEW120 18/14 A2996 RMK AO2 SLP135 T01830139 =
TAF
KCVG 300535Z 3006/3112 22007KT P6SM SCT110 FM301100 28005KT P6SM FEW110 FM301600 26011G18KT P6SM FEW060 FM310000 26005KT P6SM FEW080 FM310500 22005KT P6SM BKN100 =

KCVG Operations

Calm Wind Configuration is Landing runways 36C and 36R, departing runway 27.

You can expect  this configuration up to and including a 10 knot tailwind.

The Center runway is the old 18R/36L in the default scenery. Additionally, runway 9/27 was lengthened to 12,000 feet when the west runway (18R/36L) was added.

New Scenery is available at FlightSim.com.

On initial contact, arriving aircraft should notify the the controller which scenery they have.

 

JSN Epic template designed by JoomlaShine.com